MPEC 2001-N32: 2001 NY1

The following Minor Planet Electronic Circular may be linked-to from your own Web pages, but must not otherwise be redistributed electronically.


Read MPEC 2001-N31 Read MPEC 2001-N33


M.P.E.C. 2001-N32                                Issued 2001 July 14, 16:20 UT

     The Minor Planet Electronic Circulars contain information on unusual
         minor planets and routine data on comets.  They are published
   on behalf of Commission 20 of the International Astronomical Union by the
          Minor Planet Center, Smithsonian Astrophysical Observatory,
                          Cambridge, MA 02138, U.S.A.

             Prepared using the Tamkin Foundation Computer Network

                              MPC@CFA.HARVARD.EDU
          URL http://cfa-www.harvard.edu/iau/mpc.html  ISSN 1523-6714

                                   2001 NY1

Observations:
     K01N01Y* C2001 07 10.40369 22 08 50.43 +23 58 33.9          19.4        644
     K01N01Y  C2001 07 10.41448 22 08 51.82 +24 00 15.7          19.1        644
     K01N01Y  C2001 07 10.42652 22 08 53.36 +24 02 09.2          19.1        644
     K01N01Y  C2001 07 12.33266 22 14 10.48 +28 09 19.2          19.6        644
     K01N01Y  C2001 07 12.34354 22 14 11.52 +28 10 31.9          20.0        644
     K01N01Y  C2001 07 12.35462 22 14 12.51 +28 11 45.5          20.2        644
     K01N01Y  C2001 07 12.90234 22 15 26.14 +29 06 54.7                      557
     K01N01Y  C2001 07 12.90321 22 15 26.23 +29 06 59.3                      557
     K01N01Y 4C2001 07 13.26221 22 16 12.08 +29 41 25.2                      673
     K01N01Y 4C2001 07 13.27253 22 16 13.08 +29 42 26.6                      673
     K01N01Y  C2001 07 13.93589 22 17 25.60 +30 39 29.7                      557
     K01N01Y  C2001 07 13.93694 22 17 25.67 +30 39 35.1                      557
     K01N01Y  C2001 07 13.93799 22 17 25.76 +30 39 40.5          19.6 V      557
     K01N01Y FC2001 07 14.02519 22 17 32.01 +30 46 57.2          19.6 V      046
     K01N01Y FC2001 07 14.02942 22 17 32.46 +30 47 21.8          19.4 R      046
     K01N01Y FC2001 07 14.03028 22 17 32.58 +30 47 26.8          19.2 R      046
     K01N01Y  C2001 07 14.40475 22 18 07.87 +31 17 07.8          19.7 R      649
     K01N01Y  C2001 07 14.40938 22 18 08.16 +31 17 29.9          20.0 R      649
     K01N01Y  C2001 07 14.42002 22 18 08.89 +31 18 14.9          19.3 R      649

Observer details:
046 Klet.  Observers J. Ticha, M. Tichy, P. Jelinek.  0.57-m f/5.2 reflector
    + CCD.
557 Ondrejov.  Observer L. Sarounova.  0.65-m f/3.6 reflector + CCD.
644 Palomar Mountain/NEAT.  Observers E. F. Helin, S. Pravdo, K. Lawrence,
    M. Hicks, E. Hovland, T. Bickler, J. Schroeder, L. Scherr, R. Thicksten,
    A. Deetz.  1.2-m Schmidt + CCD.
649 Powell Observatory, Louisburg.  Observer K. Smalley.  0.75-m Newtonian
    + CCD.
673 Table Mountain Observatory, Wrightwood.  Observers M. Hicks,
    D. Esqueda, T. Ha.  0.6-m reflector + CCD.

Orbital elements:
2001 NY1
Epoch 2001 July 10.0 TT = JDT 2452100.5                 Williams
M   2.42306              (2000.0)            P               Q
n   0.28696872     Peri.  357.18194     +0.17540151     +0.96408202
a   2.2763883      Node   282.86109     -0.89921026     +0.07440379
e   0.5450887      Incl.   11.80504     -0.40081818     +0.25497045
P   3.43           H   23.1           G   0.15
From 19 observations 2001 July 10-14.

Ephemeris:
2001 NY1                 a,e,i = 2.28, 0.55, 12                  q = 1.0356
Date    TT    R. A. (2000) Decl.     Delta      r     Elong.  Phase     V
2001 07 10    22 07.44   +22 53.1    0.049    1.041   118.7    58.9    18.7
2001 07 15    22 19.09   +32 00.4    0.075    1.049   114.0    62.3    19.8
2001 07 20    22 24.29   +36 06.0    0.101    1.061   113.5    61.5    20.5
2001 07 25    22 26.40   +38 11.0    0.128    1.076   114.7    59.1    20.9
2001 07 30    22 26.79   +39 13.3    0.155    1.094   116.8    55.9    21.3
2001 08 04    22 26.11   +39 36.2    0.181    1.115   119.4    52.5    21.6
2001 08 09    22 24.70   +39 30.5    0.207    1.138   122.3    48.8    21.8

Gareth V. Williams           (C) Copyright 2001 MPC           M.P.E.C. 2001-N32

Read MPEC 2001-N31 Read MPEC 2001-N33


Our Web policy. Index to the CBAT/MPC/ICQ pages.

MPC